Location: Ferma
(41.9500°N, 44.5167°E)
Time: 18:39:39
(UTC+00:00)

Cosmos 1605 Rocket - Pass Details

Date: 24 October 2021
Orbit: 945 x 1005 km, 82.9° (Epoch: 02 December)

Event Time Altitude Azimuth Distance (km) Brightness Sun altitude
Rises 15:09:45 0° 174° (S) 3,656 7.0 -12.3°
Reaches altitude 10° 15:12:16 10° 170° (S) 2,722 6.3 -12.8°
Maximum altitude 15:18:23 60° 92° (E) 1,122 4.0 -13.9°
Drops below altitude 10° 15:24:38 10° 15° (NNE) 2,776 6.2 -15.1°
Sets 15:27:13 0° 12° (NNE) 3,735 6.9 -15.6°
